Theta_e
337 339 340 345 347 340 340 343 349 349 347 343 342 343 343 344 345 346 345 344 348 348 350 350 350 351 351 350 350 349 349 349
334 337 339 338 338 346 341 351 353 351 351 350 342 342 344 344 343 343 342 343 346 348 348 348 349 350 350 350 350 349 348 348
330 331 338 342 342 338 339 343 348 346 345 339 342 339 341 343 342 340 341 341 343 347 346 348 348 348 349 349 349 348 347 347
327 324 325 334 340 337 338 341 338 335 340 334 338 338 340 342 343 343 341 340 345 347 348 347 348 347 348 348 349 347 347 348
320 320 322 330 333 335 331 333 339 341 338 334 341 341 340 342 343 340 345 347 348 346 345 347 348 348 349 349 349 348 347 348
322 319 320 326 328 333 332 336 336 338 336 335 335 343 343 341 339 338 344 349 349 347 345 347 347 348 348 349 350 349 349 348
318 318 321 324 326 331 331 332 332 329 333 333 333 337 341 342 339 340 343 348 348 347 346 346 348 348 349 350 349 349 349 348
321 318 319 322 319 327 329 326 330 330 331 329 327 331 338 340 342 342 341 348 348 348 346 346 347 348 349 349 349 349 349 348
318 318 318 321 319 318 319 324 325 333 327 332 339 341 340 339 341 341 341 346 348 348 347 346 347 347 349 349 349 349 349 348
319 319 322 319 318 318 319 320 323 327 327 330 335 336 337 338 340 341 344 344 347 347 346 346 347 347 348 349 349 349 349 347
320 319 320 324 322 322 321 322 319 324 325 334 342 342 340 340 341 342 345 346 347 347 347 347 347 347 347 348 348 348 348 346
319 323 324 321 323 324 320 326 323 329 331 335 340 339 338 341 343 341 344 346 347 347 347 347 347 348 348 348 348 347 348 347
323 323 322 320 319 321 328 327 328 341 340 337 341 335 335 338 341 340 342 345 347 347 346 347 349 349 349 348 348 348 348 347
319 323 325 318 322 329 323 321 334 336 333 335 337 338 337 337 339 340 340 343 346 346 346 346 348 349 349 348 348 349 347 348
319 320 317 316 317 316 318 324 333 337 339 338 339 340 340 337 337 339 339 343 345 346 346 346 347 348 348 349 348 348 347 344
317 317 316 315 315 315 317 319 326 331 336 340 342 341 340 339 337 339 340 341 346 346 346 346 346 347 349 348 348 348 345 344
314 314 314 315 315 315 317 320 320 325 333 334 336 336 337 337 339 341 343 342 347 347 347 348 348 348 348 347 348 348 348 347
315 313 313 314 313 315 317 321 321 319 321 328 332 333 333 332 331 333 337 342 344 346 349 349 350 350 349 348 348 349 350 351
311 311 311 312 313 314 317 320 321 321 318 317 318 322 329 329 327 327 333 341 343 344 348 347 351 351 351 350 350 350 351 352
Wind_Speed
4 5 11 4 4 3 6 3 2 4 8 10 7 5 8 9 8 10 12 12 14 16 21 24 27 30 32 31 30 27 28 27
5 5 4 7 7 2 2 3 4 4 6 6 7 9 9 8 10 9 7 10 12 13 21 24 26 26 27 30 30 28 27 27
4 5 8 3 2 4 4 4 5 1 6 7 9 9 9 11 10 8 11 12 13 14 21 20 20 23 26 28 28 27 26 25
9 2 2 6 7 6 5 5 2 3 8 5 8 10 8 9 7 5 8 10 12 14 21 24 23 24 28 28 29 26 24 23
7 7 5 3 6 4 5 4 6 5 8 2 4 7 6 6 7 6 6 8 11 11 13 20 25 29 31 28 29 23 20 20
12 9 6 6 7 7 7 4 4 7 13 17 9 8 7 9 8 8 8 11 11 10 10 22 26 28 27 29 26 22 20 18
9 8 8 6 7 10 8 11 7 15 9 16 13 11 15 14 8 8 9 11 12 11 12 18 21 22 24 25 26 23 21 21
6 6 9 6 6 9 6 3 8 6 10 9 11 7 8 10 6 8 9 12 13 14 12 17 23 24 27 26 25 24 23 24
6 3 7 2 9 9 6 5 7 6 11 4 4 8 11 8 9 9 7 11 15 17 17 21 25 29 27 29 28 28 26 26
2 2 3 8 2 6 10 6 8 5 8 8 7 8 8 8 8 10 9 14 14 13 20 21 22 25 30 31 28 29 28 30
4 4 5 4 2 5 7 8 7 9 10 5 3 2 9 9 9 7 9 11 16 22 23 24 29 33 32 26 28 30 29 30
3 3 7 3 8 11 1 4 7 6 8 5 3 3 10 5 6 6 9 18 19 21 22 22 24 32 28 29 30 30 35 36
3 3 4 7 18 7 4 5 10 2 8 6 7 4 2 5 6 5 6 15 24 28 26 30 29 31 24 26 31 35 37 36
1 1 5 16 7 2 7 12 10 7 7 11 9 5 5 4 5 7 9 11 21 22 24 31 33 35 26 29 33 36 34 37
5 4 4 4 4 7 9 9 6 7 7 5 4 4 0 3 6 6 6 8 16 18 19 24 33 34 29 32 29 33 36 35
2 2 4 6 7 10 11 10 8 5 5 5 3 5 4 1 4 5 6 6 14 14 13 16 25 31 36 28 33 33 33 33
2 5 7 2 9 10 14 14 14 10 5 4 4 6 5 4 4 2 4 7 14 16 18 20 24 24 19 25 33 32 28 27
5 4 3 7 9 10 10 11 12 10 9 7 5 6 6 6 5 6 7 10 11 10 14 16 19 22 21 23 27 27 24 25
3 3 6 12 10 6 6 7 7 8 8 7 8 6 4 4 7 10 14 14 16 13 7 6 15 21 24 25 27 30 29 25
Wind_Direction
196 159 144 195 189 179 105 16 28 250 290 294 265 278 230 220 189 203 204 203 199 195 192 186 183 187 191 196 203 209 214 215
210 106 57 170 155 84 15 186 269 274 279 238 282 255 230 229 215 210 198 194 190 190 189 190 188 185 190 202 203 207 211 215
76 190 168 154 199 63 125 138 190 295 268 221 242 248 231 231 228 190 201 198 188 187 187 181 179 175 186 199 201 205 209 212
205 181 263 169 178 152 141 235 213 150 271 231 244 258 205 249 241 229 216 193 177 177 170 173 169 170 189 197 199 201 205 209
341 357 359 197 201 151 109 85 203 147 264 248 304 275 231 226 237 230 173 149 161 158 168 165 169 172 186 194 198 195 200 204
217 204 161 183 205 177 142 139 187 221 264 283 268 256 234 234 230 222 196 173 173 161 165 179 176 174 178 184 198 193 197 199
227 185 170 209 186 167 180 219 171 253 203 259 274 230 237 225 215 202 185 176 175 178 176 175 169 170 177 181 196 192 197 201
272 148 195 206 211 180 214 158 256 273 285 262 271 254 253 225 198 208 202 184 180 171 178 181 174 168 175 185 195 194 198 198
254 171 132 289 218 200 206 193 176 178 231 176 263 249 246 237 200 222 202 184 180 182 181 186 178 169 173 188 195 193 195 200
182 46 200 240 205 191 194 240 227 280 260 230 218 244 273 231 209 235 189 183 181 181 179 191 179 172 180 189 185 193 194 198
145 196 284 301 185 170 166 254 205 222 261 284 141 91 279 214 215 222 180 174 178 184 176 176 176 178 182 164 185 188 195 202
139 159 194 262 332 344 258 273 242 202 252 233 181 142 256 184 160 199 167 159 161 168 169 172 180 175 171 165 179 187 200 207
158 197 286 334 311 288 169 251 325 208 247 185 207 219 309 143 142 160 168 165 160 161 169 181 178 171 182 171 183 199 202 207
114 163 264 354 353 9 310 291 285 284 257 228 225 24 27 85 140 163 147 162 171 171 175 182 181 176 184 191 192 198 199 205
165 205 222 291 235 257 301 275 304 306 320 279 291 63 131 171 156 169 129 155 183 184 183 184 183 184 184 204 190 195 196 199
79 249 291 266 325 346 350 335 309 337 358 2 55 43 81 147 211 193 170 179 183 173 177 181 188 194 208 191 194 194 189 191
311 311 318 266 340 336 339 354 358 348 4 28 55 52 84 101 98 114 142 187 191 180 178 188 194 203 209 199 190 186 191 185
212 225 209 272 309 325 344 346 351 355 344 356 35 64 74 61 52 72 76 105 120 150 181 191 200 203 205 205 195 182 182 186
305 287 246 273 282 292 323 331 351 14 359 350 359 13 16 56 28 57 79 83 82 84 98 178 201 206 203 204 201 197 191 191